Flag for Aruba Weather past 2 weeks in Oranjestad, Aruba

Now
77 °F

Passing clouds.


Feels Like: 78 °F
Forecast: 80 / 85 °F
Wind: 10 mph from East

Location: Queen Beatrix Airport - Aruba

Current Time: Mar 1, 2015 at 9:57:52 PM

Latest Report: Mar 1, 2015 at 9:00 PM


Visibility: N/A

Pressure: 29.95 "Hg

Humidity: 89%

Dew point: 73 °F

Location of OranjestadLocation

Historic Weather in Oranjestad — Graph

°F

Oranjestad temperature yesterday

Maximum temperature yesterday: 88 °F (at 12:00 PM)
Minimum temperature yesterday: 79 °F (at 3:00 AM)
Average temperature yesterday: 83 °F

Past Weeks' High & Low Weather Summary

 TemperatureHumidityPressure
High90 °F (Feb 15, 2:00 PM)89% (Feb 23, 5:00 AM)30.04 "Hg (Feb 23, 5:00 AM)
Low75 °F (Feb 23, 5:00 AM)55% (Mar 1, 12:00 PM)29.83 "Hg (Feb 18, 5:00 PM)
Average82 °F72%29.91 "Hg
* Reported Feb 14 8:00 PM — Mar 1 8:00 PM, Oranjestad, Weather by CustomWeather, © 2015

Note: Actual official high and low records may vary slightly from our data, if they occured in-between our weather recording intervals... More about our weather records

Advertising

Oranjestad weather history for previous 24 hours

 ConditionsComfort  
Time TempWeatherWind HumidityBarometerVisibility
8:00 PM
Sun, Mar 1
75 °FPassing clouds.10 mph89%29.95 "HgN/A
7:00 PM79 °FPassing clouds.15 mph79%29.95 "HgN/A
6:00 PM81 °FScattered showers. Scattered clouds.25 mph74%29.92 "HgN/A
5:00 PM84 °FScattered clouds.24 mph66%29.92 "HgN/A
4:00 PM86 °FPassing clouds.23 mph62%29.92 "HgN/A
3:00 PM86 °FScattered clouds.24 mph62%29.92 "HgN/A
2:00 PM88 °FScattered clouds.23 mph59%29.95 "HgN/A
1:00 PM88 °FPassing clouds.20 mph59%29.98 "HgN/A
12:00 PM88 °FPassing clouds.21 mph55%30.01 "HgN/A
11:00 AM86 °FPassing clouds.21 mph62%30.04 "HgN/A
10:00 AM84 °FPassing clouds.21 mph66%30.04 "HgN/A
9:00 AM82 °FPassing clouds.23 mph70%30.01 "HgN/A
8:00 AM81 °FPassing clouds.17 mph74%30.01 "HgN/A
7:00 AM77 °FScattered clouds.13 mph83%29.98 "HgN/A
6:00 AM79 °FPassing clouds.14 mph79%29.95 "HgN/A
3:00 AM77 °FPassing clouds.16 mph89%29.95 "HgN/A
2:00 AM79 °FPassing clouds.16 mph79%29.95 "HgN/A
1:00 AM79 °FPassing clouds.14 mph79%29.98 "HgN/A
12:00 AM81 °FPassing clouds.18 mph74%29.98 "HgN/A
11:00 PM
Sat, Feb 28
81 °FPassing clouds.16 mph74%29.98 "HgN/A
10:00 PM81 °FPassing clouds.18 mph74%29.98 "HgN/A
9:00 PM81 °FPassing clouds.16 mph74%29.95 "HgN/A
Weather by CustomWeather, © 2015

See weather overviewHow to use our weather pages